loading
|

ELECTRON KICK STAGE R/B, 60085

Orbit data source: Space-Track

ELECTRON KICK STAGE R/B, 60085 is space debris in SSO originally from a launch on Thu, 20 Jun 2024 UTC via an Electron launch vehicle from the Rocket Lab Launch Complex (RLLC). Debris objects in space refer to the collection of defunct objects orbiting the Earth. Examples of debris include non-operational satellites, rocket bodies, and fragments generated from explosions, collisions, or faulty payload assembly.

Loading next visibility...
Next conjunction unknown
Loading greatness...
ELECTRON KICK STAGE R/B details
Identifier
60085, 2024-114G
Orbit
SSO
Last TLE update15 hours ago
Origin
Flag of USRocket Lab (US)
ManufacturerRocket Lab
MissionOperational spacecraft
Bus & MotorKICK STAGE, CURIE
Mass~50 kg wet, ~50 kg dry
Launch date (UTC)
2024-06-20 (4 months ago)
Launch vehicle
Electron
Launch site
Rocket Lab Launch Complex (RLLC)
Object type
Payload
Rocket body
Debris
Shape & HBRTrunc Cone, 1.4 m
Radar Cross Section0.760 m², Medium (>0.1 m² and < 1m²)

Expand to show TLE details & history

TLE from 15 hours ago
0 ELECTRON KICK STAGE R/B
1 60085U 24114G   24288.03529684  .00013019  00000-0  94504-3 0  9991
2 60085  98.0183 307.3416 0083230  10.6414 349.6545 15.01237287 17264
Epoch: 2024-10-14T00:50Z
Definitive object data (Epoch: 2024-10-14T00:50:49.646Z)
Latitude-0.00011°
Longitude-88.43346°
Altitude509.298 km
Speed7.64 km/s
True Right ascension20h 29m 21s
True Declination0° 00' 00"
Sunlit
Object was in daylight at TLE epoch
Predictive object data (real-time)
Latitude48.48405°
Longitude101.31676°
Altitude601.304 km
Speed7.547 km/s
Apparent Right ascension03h 07m 51s
Apparent Declination35° 39' 29"
Sunlit
Object is in daylight
Predictive observer data (real-time)
Local Sidereal Time10:23:31
Azimuth308.716° NW
Elevation9.906°
Doppler factor1
Orbital elements
Apogee617.844 km
Perigee502.351 km
Semi-major axis6,938.234 km
Eccentricity0.008323
Inclination98.0183°
RAAN307.3416°
Arg. of periapsis10.6414°
True anomaly349.48145°
Mean anomaly349.6545°
Eccentric anomaly349.56815°
Mean motion3.75552 °/min
BSTAR0.00094504
Period95.86 mins
No data available

ELECTRON KICK STAGE R/B Visibility forecast

Observer location: 39.9160978°, -105.1181434

Span
Click to sort rows by Start time (UTC) header in descending order
Start Az.
Max El. time (UTC)
Max El. Az.
Max El.
End time (UTC)
End Az.
5 mins2024-10-15 00:59:16.247Z129.038° SE2024-10-15 01:01:16.247Z79.89° E30.482°2024-10-15 01:04:16.247Z9.077° NNE
6 mins2024-10-15 14:13:16.247Z24.008° NE2024-10-15 14:15:16.247Z85.621° E43.086°2024-10-15 14:19:16.247Z185.505° SSW